Stations météo

Publicité
Hyeres, France (7667): Température de l'air & dewpoint: 10.02.2019 18:00:00 - 16.02.2019 18:00:00 (CET)Hyeres, France (7667): Température de l'air 5cm: 10.02.2019 18:00:00 - 16.02.2019 18:00:00 (CET)Hyeres, France (7667): Vitesse du vent & gusts: 10.02.2019 18:00:00 - 16.02.2019 18:00:00 (CET)Hyeres, France (7667): Direction du vent: 10.02.2019 18:00:00 - 16.02.2019 18:00:00 (CET)Hyeres, France (7667): reduced air pressure: 10.02.2019 18:00:00 - 16.02.2019 18:00:00 (CET)Hyeres, France (7667): visibility: 10.02.2019 18:00:00 - 16.02.2019 18:00:00 (CET)Hyeres, France (7667): Quantités de précipitations: 10.02.2019 18:00:00 - 16.02.2019 18:00:00 (CET)
Date & Time tt [°C] td [°C] tt 5cm [°C] ff [km/h] ff [knt] fx [km/h] fx [knt] dd ppp [hPa] vv [km] rr [mm]
16.02.2019 18:00:00 13,6 8,2 7,0 3 1 10 5 S 1029,6 19 0,0
16.02.2019 17:00:00 15,2 7,2 18,1 6 3 12 7 SSE 1029,9 19 0,0
16.02.2019 16:00:00 15,6 7,4 20,7 10 5 18 10 SE 1030,3 20 0,0
16.02.2019 15:00:00 16,0 6,7 21,1 9 5 19 10 SE 1030,4 19 0,0
16.02.2019 14:00:00 15,9 6,9 20,6 12 6 21 11 ESE 1031,0 19 0,0
16.02.2019 13:00:00 16,2 5,8 20,5 13 7 22 12 ESE 1031,2 49 0,0
16.02.2019 12:00:00 16,1 5,4 21,3 13 7 21 11 ESE 1031,5 52 0,0
16.02.2019 11:00:00 16,0 4,4 21,6 6 4 13 7 ENE 1031,2 19 0,0
16.02.2019 10:00:00 13,8 5,9 12,1 0 0 9 5 N 1031,2 19 0,0
16.02.2019 09:00:00 7,7 5,5 1,1 6 4 11 6 N 1031,1 19 0,2
16.02.2019 08:00:00 2,6 1,4 -1,0 8 5 11 6 N 1030,8 16 0,0
16.02.2019 07:00:00 2,5 1,2 -1,0 8 4 11 6 N 1030,2 18 0,0
16.02.2019 06:00:00 3,0 1,8 -0,6 9 5 11 6 N 1030,2 19 0,0
16.02.2019 05:00:00 3,4 2,2 -0,8 9 5 11 6 N 1030,0 16 0,0
16.02.2019 04:00:00 3,9 2,4 0,4 9 5 16 9 N 1029,9 20 0,0
16.02.2019 03:00:00 4,8 3,6 -0,7 9 5 15 8 NW 1030,0 18 0,0
16.02.2019 02:00:00 3,8 2,6 0,4 8 4 15 8 NNE 1030,1 9 0,0
16.02.2019 01:00:00 3,3 1,5 -0,3 5 3 12 7 NNE 1030,1 13 0,0
16.02.2019 00:00:00 3,8 2,8 -0,4 6 3 10 6 N 1030,1 8 0,0
15.02.2019 23:00:00 3,8 2,3 -0,5 5 3 7 4 N 1029,9 5 0,0
15.02.2019 22:00:00 4,6 3,1 0,4 7 4 10 6 NNE 1029,3 7 0,0
15.02.2019 21:00:00 6,0 4,0 0,6 6 4 8 5 NNE 1028,5 9 0,0
15.02.2019 20:00:00 7,4 4,4 1,9 5 3 8 4 NE 1028,5 15 0,0
15.02.2019 19:00:00 10,9 5,0 2,6 0 0 7 4 N 1028,3 15 0,0
15.02.2019 18:00:00 13,6 5,7 9,5 3 2 17 9 SSW 1028,2 30 0,0
15.02.2019 17:00:00 15,2 7,5 16,4 12 6 22 12 SSW 1028,4 35 0,0
15.02.2019 16:00:00 15,8 6,5 18,7 14 7 26 14 SSW 1028,7 20 0,0
15.02.2019 15:00:00 16,2 7,1 19,6 15 8 23 13 SW 1029,0 16 0,0
15.02.2019 14:00:00 15,5 8,2 19,6 16 9 24 13 SSW 1029,9 13 0,0
15.02.2019 13:00:00 15,2 7,0 20,8 12 7 18 10 SSW 1030,3 13 0,0
15.02.2019 12:00:00 15,6 6,0 23,8 3 1 9 5 SSW 1031,4 18 0,0
15.02.2019 11:00:00 15,2 6,2 19,6 4 2 13 7 WSW 1031,8 20 0,0
15.02.2019 10:00:00 11,7 4,2 13,1 9 5 13 7 WNW 1031,6 20 0,0
15.02.2019 09:00:00 7,6 4,5 -0,4 3 2 9 5 NNW 1031,7 20 0,0
15.02.2019 08:00:00 1,7 0,7 -1,7 7 4 10 5 N 1031,8 17 0,0
15.02.2019 07:00:00 1,1 -0,1 -1,8 8 5 10 5 N 1031,7 19 0,0
15.02.2019 06:00:00 1,5 0,0 -1,5 8 5 11 6 NNE 1031,6 17 0,2
15.02.2019 05:00:00 4,0 1,7 -1,5 5 3 12 6 NNW 1031,1 22 0,0
15.02.2019 04:00:00 3,7 1,6 -1,2 10 5 16 9 NW 1031,2 26 0,0
15.02.2019 03:00:00 3,9 2,1 -0,5 7 4 14 7 NNW 1031,7 22 0,0
15.02.2019 02:00:00 5,4 3,1 -1,2 6 4 16 9 N 1031,9 24 0,0
15.02.2019 01:00:00 5,2 4,2 -1,2 5 3 16 9 NW 1031,9 15 0,0
15.02.2019 00:00:00 4,2 3,3 -0,9 8 4 13 7 NW 1032,1 7 0,0
14.02.2019 23:00:00 6,4 5,3 0,2 6 3 10 5 NW 1032,1 8 0,0
14.02.2019 22:00:00 7,8 7,2 0,7 4 2 6 3 NNW 1032,3 6 0,0
14.02.2019 21:00:00 8,2 5,7 1,9 0 0 5 3 N 1032,2 10 0,0
14.02.2019 20:00:00 7,9 6,0 2,9 0 0 5 3 N 1032,4 9 0,0
14.02.2019 19:00:00 11,0 7,7 7,0 6 4 20 11 W 1032,4 36 0,0
14.02.2019 18:00:00 11,9 8,0 9,6 14 8 24 13 SW 1032,3 28 0,0
14.02.2019 17:00:00 13,2 8,3 14,4 18 10 28 15 SW 1032,6 20 0,0
14.02.2019 16:00:00 13,9 8,3 17,0 22 12 30 16 SW 1032,9 48 0,0
14.02.2019 15:00:00 14,4 8,1 18,0 19 10 27 15 SW 1033,3 46 0,0
14.02.2019 14:00:00 15,4 6,4 21,5 12 7 17 9 SSW 1033,9 47 0,0
14.02.2019 13:00:00 15,6 3,4 22,9 7 4 15 8 SSE 1034,6 41 0,0
14.02.2019 12:00:00 15,5 5,1 21,4 8 5 13 7 SSE 1035,5 19 0,0
14.02.2019 11:00:00 14,5 4,8 19,9 3 2 9 5 NNE 1035,8 20 0,0
14.02.2019 10:00:00 12,0 4,7 12,6 4 2 10 5 NNE 1036,0 18 0,0
14.02.2019 09:00:00 8,3 4,5 0,9 4 2 10 5 N 1036,3 13 0,0
14.02.2019 08:00:00 3,7 1,7 -0,9 5 3 11 6 N 1036,1 23 0,0
14.02.2019 07:00:00 2,4 1,1 -0,5 7 4 10 5 N 1035,9 24 0,0
14.02.2019 06:00:00 4,3 3,1 -1,0 6 3 10 6 N 1036,1 14 0,0
14.02.2019 05:00:00 4,5 2,8 0,7 6 3 11 6 N 1035,9 29 0,2
14.02.2019 04:00:00 4,9 3,7 1,2 5 3 13 7 N 1035,9 27 0,0
14.02.2019 03:00:00 6,0 4,6 0,6 10 5 14 8 N 1036,1 35 0,0
14.02.2019 02:00:00 5,2 4,0 -0,2 10 5 12 6 N 1036,4 28 0,0
14.02.2019 01:00:00 5,3 3,8 0,5 8 4 11 6 N 1036,2 25 0,0
14.02.2019 00:00:00 6,2 4,7 0,5 9 5 11 6 N 1035,8 24 0,0
13.02.2019 23:00:00 6,7 5,2 1,5 8 4 14 7 N 1035,8 36 0,0
13.02.2019 22:00:00 7,1 5,7 2,2 8 4 13 7 NNE 1035,6 50 0,0
13.02.2019 21:00:00 7,6 6,2 3,4 9 5 14 7 N 1035,3 30 0,0
13.02.2019 20:00:00 9,3 7,1 6,5 8 4 23 12 N 1035,0 31 0,0
13.02.2019 19:00:00 11,6 8,1 9,2 14 8 24 13 E 1034,5 48 0,0
13.02.2019 18:00:00 11,9 8,2 9,9 15 8 25 13 E 1034,0 48 0,0
13.02.2019 17:00:00 13,0 8,3 13,8 16 9 30 16 E 1033,6 60 0,0
13.02.2019 16:00:00 13,8 8,2 16,6 18 10 33 18 E 1033,5 45 0,0
13.02.2019 15:00:00 14,2 8,4 17,2 21 11 35 19 E 1033,5 20 0,0
13.02.2019 14:00:00 14,3 8,0 17,9 20 11 35 19 ESE 1033,5 42 0,0
13.02.2019 13:00:00 14,6 7,9 15,8 23 12 40 22 E 1033,7 20 0,0
13.02.2019 12:00:00 14,3 8,0 15,9 26 14 40 21 E 1033,9 19 0,0
13.02.2019 11:00:00 14,2 7,7 15,9 25 13 40 22 E 1033,4 58 0,0
13.02.2019 10:00:00 13,3 8,1 14,2 15 8 33 18 ENE 1032,8 20 0,0
13.02.2019 09:00:00 9,3 7,1 -0,1 10 5 15 8 N 1032,3 35 0,0
13.02.2019 08:00:00 2,8 1,8 -1,7 10 5 14 7 N 1031,4 19 0,0
13.02.2019 07:00:00 2,2 0,6 -1,5 4 2 6 4 N 1030,6 30 0,0
13.02.2019 06:00:00 2,6 0,8 -0,9 5 3 11 6 NNW 1029,9 34 0,0
13.02.2019 05:00:00 3,7 2,2 -1,0 5 3 11 6 N 1029,1 37 0,0
13.02.2019 04:00:00 3,6 0,8 -1,4 5 3 12 6 N 1028,8 36 0,0
13.02.2019 03:00:00 4,3 -0,5 -0,7 8 4 12 7 N 1028,5 54 0,0
13.02.2019 02:00:00 5,2 -1,9 -0,5 8 4 11 6 NNW 1027,9 60 0,0
13.02.2019 01:00:00 6,1 -2,8 -0,4 9 5 20 11 N 1027,3 60 0,0
13.02.2019 00:00:00 6,2 -2,2 -1,8 11 6 17 9 N 1026,7 60 0,0
12.02.2019 23:00:00 2,8 -0,1 -1,6 10 6 15 8 NNW 1026,2 18 0,0
12.02.2019 22:00:00 4,3 1,3 -0,8 5 3 10 5 N 1025,8 14 0,0
12.02.2019 21:00:00 6,2 2,3 0,6 9 5 13 7 NE 1025,6 21 0,0
12.02.2019 20:00:00 7,6 2,5 2,0 4 2 10 6 N 1025,2 16 0,0
12.02.2019 19:00:00 12,2 4,9 7,2 3 2 15 8 SW 1025,1 44 0,0
12.02.2019 18:00:00 13,1 2,6 8,2 10 5 16 8 WNW 1024,9 60 0,0
12.02.2019 17:00:00 14,6 4,6 13,6 11 6 26 14 SSW 1024,7 31 0,0
12.02.2019 16:00:00 14,7 6,8 15,7 16 9 26 14 SW 1025,2 19 0,0
12.02.2019 15:00:00 15,0 3,2 16,4 14 8 29 16 SW 1025,7 60 0,0
12.02.2019 14:00:00 13,8 2,7 16,8 21 12 28 15 SW 1026,1 60 0,0
12.02.2019 13:00:00 14,5 0,3 20,0 13 7 19 10 SSW 1026,7 20 0,0
12.02.2019 12:00:00 15,6 -2,9 20,1 6 3 18 10 NNW 1027,4 20 0,0
12.02.2019 11:00:00 13,3 -3,1 17,3 10 5 18 10 WNW 1028,0 20 0,0
12.02.2019 10:00:00 11,5 -4,7 12,1 7 4 24 13 NNW 1028,1 55 0,0
12.02.2019 09:00:00 8,5 -3,4 4,7 11 6 24 13 NW 1027,6 50 0,0
12.02.2019 08:00:00 7,8 -4,3 2,2 9 5 18 10 NW 1026,7 60 0,0
12.02.2019 07:00:00 6,4 -3,8 2,5 8 4 22 12 WNW 1026,8 60 0,0
12.02.2019 06:00:00 7,6 -3,6 3,1 8 4 20 11 WNW 1026,3 60 0,0
12.02.2019 05:00:00 7,5 -3,4 1,6 13 7 22 12 W 1025,9 60 0,0
12.02.2019 04:00:00 7,0 -3,6 2,2 14 8 29 15 WNW 1025,2 60 0,0
12.02.2019 03:00:00 8,1 -3,7 5,0 19 11 35 19 N 1025,0 60 0,0
12.02.2019 02:00:00 8,6 -3,9 5,6 18 10 39 21 N 1024,6 60 0,0
12.02.2019 01:00:00 9,0 -4,2 5,9 23 12 45 25 N 1024,2 60 0,0
12.02.2019 00:00:00 9,5 -4,9 6,7 24 13 48 26 N 1023,2 60 0,0
11.02.2019 23:00:00 9,4 -3,9 6,7 28 15 48 26 N 1022,6 60 0,0
11.02.2019 22:00:00 10,0 -3,7 7,3 22 12 70 38 NNW 1022,8 60 0,0
11.02.2019 21:00:00 10,1 -3,6 7,5 32 18 58 32 NNW 1021,7 60 0,0
11.02.2019 20:00:00 10,6 -3,9 8,1 33 18 56 30 NNW 1022,2 60 0,0
11.02.2019 19:00:00 11,0 -4,3 8,4 28 15 59 32 NNW 1021,6 60 0,0
11.02.2019 18:00:00 11,4 -4,3 9,1 27 14 64 35 NNW 1020,8 60 0,0
11.02.2019 17:00:00 12,2 -4,5 11,8 44 24 74 40 NW 1019,2 28 0,0
11.02.2019 16:00:00 12,9 -3,0 14,0 32 17 66 36 NW 1020,0 29 0,0
11.02.2019 15:00:00 13,6 -2,8 15,2 40 22 69 37 NW 1019,4 26 0,0
11.02.2019 14:00:00 13,3 -3,1 15,3 31 17 69 38 NW 1019,4 25 0,0
11.02.2019 13:00:00 13,0 -2,5 15,2 33 18 63 34 NW 1020,0 32 0,0
11.02.2019 12:00:00 12,4 -2,7 14,6 37 20 64 34 NW 1020,5 41 0,0
11.02.2019 11:00:00 11,8 -2,8 13,7 35 19 63 34 NW 1020,3 54 0,0
11.02.2019 10:00:00 10,9 -2,5 11,0 32 17 55 30 NW 1020,4 60 0,0
11.02.2019 09:00:00 10,0 -2,7 5,9 24 13 44 24 NW 1019,6 60 0,0
11.02.2019 08:00:00 9,0 -2,6 6,3 18 10 74 40 NW 1019,0 50 0,0
11.02.2019 07:00:00 9,6 -3,0 7,1 27 15 69 37 NW 1017,9 60 0,0
11.02.2019 06:00:00 10,0 -2,7 6,3 35 19 62 33 WNW 1017,3 60 0,0
11.02.2019 05:00:00 9,4 -0,5 6,7 29 16 54 29 W 1016,8 60 0,0
11.02.2019 04:00:00 9,6 0,2 7,0 31 17 54 29 W 1017,0 60 0,0
11.02.2019 03:00:00 9,7 0,8 7,1 28 15 46 25 W 1017,0 58 0,0
11.02.2019 02:00:00 9,9 -0,3 7,2 24 13 56 30 WSW 1016,7 60 0,0
11.02.2019 01:00:00 10,5 -1,3 8,1 31 17 54 29 W 1015,9 60 0,0
11.02.2019 00:00:00 11,5 -1,7 9,3 43 23 69 38 W 1015,6 60 0,0
10.02.2019 23:00:00 11,8 0,2 9,6 36 20 59 32 W 1014,9 60 0,0
10.02.2019 22:00:00 12,3 2,4 10,2 42 23 62 34 WNW 1014,6 60 0,0
10.02.2019 21:00:00 13,9 3,4 10,7 35 19 58 31 NW 1013,8 60 0,0
10.02.2019 20:00:00 13,9 7,2 11,1 24 13 44 24 WNW 1013,7 29 0,0
10.02.2019 19:00:00 13,4 9,3 9,3 12 7 23 12 W 1013,5 12 0,0
10.02.2019 18:00:00 12,8 10,3 10,6 16 9 23 12 WSW 1013,1 12 0,0

tt = Température de l'air
td = dewpoint
tt 5cm = Température de l'air 5cm
ff = Vitesse du vent
fx = gusts
dd = Direction du vent
ppp = reduced air pressure
vv = visibility
rr = Quantités de précipitations

stations d'obs. à proximité